Timeline UpdatesTrip UpdatesNews PostsPvt Posts♥♥Travel TipsAdmin PostsConv PostsFollowed PostsChat RequestsBlog PostsPNR Posts

Disclaimer
Search
 
 
Fri Oct 31, 2014 12:33:49 ISTHomeTrainsΣChainsAtlasPNRForumGalleryNewsFAQTripsMembersLoginFeedback
No Recent News for this Train
Other Trains in the News **new
Latest...
Cancelled on 20/5/14.
Mon May 19, 2014 (06:12PM)
⇐ Return Journey: Train# 13008

13007/Udyan Abha Toofan Express

Time-Table HAS CHANGED.
Sep 03 2014 (10:30AM)
Change Departure Station:
Change Arrival Station:
Post a Train Travel TipPost a Train Travel Tip **new
Post a Comment/Question/Picture/VideoPost a Comment/Question/Picture/Video
Inaugural Run
Wed Jan 01, 1930
Pantry/Catering
✕ NO Pantry Car
✕ NO Catering
Loco/Rake Reversals
AGC/Agra Cantt. (6);
RSA - Rake Sharing
Rake/Coach Composition
LOCO-SLR-GEN-GEN-B1-S5-S4-S3-S2-S1-GEN-GEN-SLR-HCPV-HCPV.
Loco
HWH-NDLS: HWH WAP-4 NDLS-SGNR: TKD WDM-3A
News    PNR    Forum    Time-Table    Availability    Fare Chart    Map    Arr/Dep History    Trips    Gallery    ΣChains    X/O    Timeline    
Travel Time: 11h 55m    37 halts    Distance: 560 km    Avg Speed: 46 km/hr
Type: Mail/Express
Zone: ER/Eastern
Departs @ 09:35 (Avg 34m late)
Platform# 11
SMTWTFS
Kolkata Howrah Junction/HWH 
Arrives @ 21:30 (Avg 1h 58m late)
Platform# ???
SMTWTFS
Neora/NEO 

37 halts. 136 intermediate Stations between Kolkata Howrah Junction and Neora

Show ALL intermediate Stations  Show Old Time-Table

#TrkCodeStation NameX/OArrivesAvgDepartsAvgHaltPFDay#KmSpeedElevZoneAddress
1/==/HWHKolkata Howrah Junction (23)»  -09:35+341110.04210mERHowrah 711101, West Bengal
2/==/BDCBandel Junction (7)X  10:32+3310:37+335m--139.57014mERdist - HOOGHLY, West Bengal
3/==/BWNBarddhaman Junction (8)X  11:35+3711:40+365m--1106.78234mERDist - Barddhaman, West Bengal
4/==/PANPanagarh (4)  12:15+4512:16+461m--1154.75570mERKaksa, West Bengal
5/==/DGRDurgapur (5)X  12:33+4312:35+452m31170.37971mERDurgapur, West Bengal
6/==/UDLAndal Junction (6)X  12:48+4912:50+492m--1187.36286mERAndal, West Bengal
7/==/RNGRaniGanj (4)X  12:57+5212:58+551m--1194.63492mERRaniganj, West Bengal
8/==/ASNAsansol Junction (7)X  13:30+4213:35+475m41212.741113mERDist - Bardhaman, West Bengal
9/==/STNSitarampur Junction (5)  13:48+4913:50+502m--1221.558139mERG T Rd Before Asansol, West Bengal
10/==/CRJChittaranjan (3)X  14:07+5114:08+521m31237.866182mERMihijam, Jharkhand
11/==/JMTJamtara (2)X  14:21+5314:22+541m11252.163201mERJamtara, Jharkhand
12/==/VDSVidyasagar (2)  14:39+5514:40+571m--1270.066250mERJamtara, Jharkhand
13/==/MDPMadhupur Junction (4)  15:02+5815:12+5410m21294.267254mER06432-224478, Jharkhand
14/==/JSMEJasidih Junction (5)  15:38+4815:43+495m--1323.280271mERJasidih, Jharkhand
15/==/STLSimultala (2)X  16:02+3616:03+371m--1348.730247mERSimultala, Bihar
16/==/JAJJhajha (4)  16:40+4916:45+525m31367.462143mECRJhajha, Bihar
17/==/GHRGidhaur (2)X  16:56+5316:57+551m--1378.873106mECRState Highway 18, Bihar
18/==/JMUJamui (2)X  17:09+5917:10+1:031m--1393.49481mECRState Highway 72, Bihar
19/==/MNPMananpur (2)  17:23+1:0517:24+1:091m--1413.71757mECRState Highway 18, Bihar
20/==/BSQPBansipur (2)  17:33+1:0917:34+1:111m--1416.32653mECRKiul, Bihar
21/==/KIULKiul Junction (5)X  17:44+1:0917:48+1:094m31420.61253mECRDist. Lakhisarai, Bihar
22/==/LKRLuckeesarai Junction (2)X  17:55+1:0917:56+1:101m--1422.05652mECRLakhisarai, Bihar
23/==/MKBMankatha  18:03 18:02+1:1018:04+1:101 2m--1427.63547mECRNational Highway 80, Bihar
24/==/DMRXDumri Halt (1)  18:13-18:14-1m11432.86449mECRNational Highway 80, Bihar
25/==/BRYABarhiya (3)  18:19 18:18+1:0918:20+1:091 2m--1437.15647mECRBarahiya, Bihar
26/==/HTZHathidah Junction (2)  18:30+1:1118:31+1:121m21446.55650mECRMusahari, Bihar
27/==/MKAMokama Junction (4)X  18:40+1:1418:44+1:144m--1454.97348mECRPatna, Bihar
28/==/MORMor (2)X  18:50+1:1718:51+1:171m--1462.26146mECRMor, Bihar
29/==/PHKPunarakh (2)  19:00 18:59+1:1519:01+1:191 2m--1470.46851mECRPunarakh, Bihar
30/==/BARHBarh (3)  19:11 19:10+1:1919:12+1:231 2m--1480.67849mECRBarh, Bihar
31/==/ATLAthmal Gola (2)XO  19:20 19:19+1:2519:21+1:241 2m--1489.72252mECRPatna, Bihar
32/==/BKPBakhtiyarpur Junction (5)X  19:46+1:0919:48+1:152m--1498.78951mECRPatna, Bihar
33/==/KOOKhusropur (2)  19:59 19:58+1:2120:00+1:271 2m--1513.56352mECRPatna, Bihar
34/==/FUTFatwa (6)  20:09 20:08+1:2720:10+1:281 2m--1522.08153mECRPatna, Bihar
35/==/PNCPatna Saheb (3)X  20:20 20:19+1:3620:21+1:401 2m--1534.23059mECRPatna 800008, Bihar
36/==/GZHGulzarbagh (3)X  20:28 20:27+1:4120:29+1:471 2m--1537.22055mECRPatna, Bihar
37/==/PNBEPatna Junction (10)X  20:50+1:4221:00+1:4810m41544.13857mECRPatna 800001, Bihar
38/==/DNRDanapur (5)O  21:15+1:5421:25+1:5410m--1553.57358mECRKhagaul, Bihar
39/==/NEONeora (2)•X  21:31 21:30+1:5821:32+2:011 2m--1559.57161mECRNational Highway 98, Bihar
40/==/SDESadisopur (2)  21:39 21:38-21:40-1 2m--1566.66364mECRSadisopur, Bihar
41/==/BTABihta (2)X  21:45 21:44+2:0321:46+2:041 2m--1570.84862mECRDistt: Patna, Bihar
42/==/KWRKoelwar (2)O  21:57-21:58-1m--1579.63665mECRNational Highway 30, Bihar
43/==/KUAKulharia (2)  22:05 22:04+2:0122:06+2:031 2m--1583.15461mECRChandi Sahar Rd, Bihar
44/==/ARAAra Junction (3)  22:17+2:0122:22+2:045m--1593.09963mECRDistt: Bhojpur Ph 06182-233411, Bihar
45/==/BEABihiya (3)  22:36 22:35+2:1122:37+2:121 2m--1614.45967mECRBehea, Bihar
46/==/BYNBanahi (2)  22:44 22:43+2:1222:45+2:121 2m--1620.46667mECRBanahi, Bihar
47/==/RPRRaghunathpur (4)  22:54 22:53+2:1122:55+2:141 2m--1629.28069mECRRaghunathpur, Bihar
48/==/DUREDumraon (3)  23:08 23:07+2:1423:09+2:171 2m--1645.26170mECRDumraon, Bihar
49/==/BXRBuxar (3)X  23:25+2:1623:30+2:145m--1661.58067mECRBuxar, Bihar
50/==/DLNDildarnagar Junction (2)  23:57+2:1723:59+2:172m--1697.75872mECRDildarnagar, Uttar Pradesh
51/==/ZNAZamania (2)XO  00:13+2:1200:14+2:131m--2711.22077mECRGhazipur, Uttar Pradesh
52/==/MGSMughal Sarai Junction (8)XO  02:25+1:0402:40+1:0415m--2755.45583mECRDistt: Chandauli Pin 232101, Uttar Pradesh
53/==/CARChunar Junction (5)  03:15+1:2303:16+1:291m22787.37085mNCRChunar Junction, Uttar Pradesh
54/==/MZPMirzapur (3)X  03:47 03:43+1:4203:48+1:431 5m--2818.65588mNCRMirzapur, Uttar Pradesh
55/==/BDLVindhyachal (3)O  03:57 03:56+1:4603:58+1:481 2m--2825.97488mNCRMirzapur, Uttar Pradesh
56/==/ALDAllahabad Junction (10)X  05:05+2:5405:15+2:5810m22908.279100mNCRAllahabad 211003, Uttar Pradesh
57/==/BREBharwariX  05:44 05:43+3:1805:45+3:191 2m--2945.275108mNCRBharwari, Uttar Pradesh
58/==/SROSirathu (2)  06:01+3:2306:02+3:261m12965.374109mNCRSirathu, Uttar Pradesh
59/==/KGAKhaga (3)X  06:23 06:22+3:3306:24+3:351 2m--2990.258114mNCRFatehpur, Uttar Pradesh
60/==/FTPFatehpur (3)XO  07:04 07:00+3:3207:05+3:331 5m--21024.989120mNCRFatehpur, Uttar Pradesh
61/==/BKOBindki Road  07:27 07:26+3:4307:28+3:461 2m--21056.249124mNCRFatehpur, Uttar Pradesh
62/==/CNBKanpur Central (10)  08:25+4:0108:40+4:0315m221102.525128mNCRKANPUR-208 001, Uttar Pradesh
63/==/GOYGovindpuri Junction (2)  08:49+4:1308:50+4:131m--21106.251129mNCRKANPUR-208 006, Uttar Pradesh
64/==/PNKPanki (3)  08:59+4:2809:00+4:291m--21113.989129mNCRKANPUR-208 020, Uttar Pradesh
65/==/RURARura (4)X  09:23 09:22+4:4109:24+4:431 2m--21146.776137mNCRJhinjhak, Uttar Pradesh
66/==/JJKJhinjhak (3)  09:40 09:39+4:4409:41+4:451 2m321165.779140mNCRAuraiya, Uttar Pradesh
67/==/PHDPhaphund (4)X  09:57 09:56+4:4409:58+4:461 2m--21185.672146mNCRdist. Auraiya, Uttar Pradesh
68/==/ULDAchalda (3)X  10:13 10:12+4:5110:14+4:531 2m--21202.378147mNCRDist. Auraiya(05688-1072), Uttar Pradesh
69/==/BNTBharthana (3)X  10:30 10:29+4:5510:31+4:561 2m--21221.963147mNCRBharthana, Uttar Pradesh
70/==/ETWEtawah (5)  10:54 10:50+4:5810:55+4:591 5m221241.787154mNCRDistt. Etawah, Uttar Pradesh
71/==/JGRJaswantnagar (2)X  11:07 11:06+5:0411:08+5:051 2m--21257.773154mNCRJaswantnagar, Uttar Pradesh
72/==/BDNBhadan (2)  11:25 11:24+5:1111:26+5:131 2m--21277.263160mNCRFirozabad, Uttar Pradesh
73/==/SKBShikohabad Junction (4)X  11:49 11:45+5:1711:50+5:181 5m321297.138166mNCRDistrict Firozabad, Uttar Pradesh
74/==/FZDFirozabad (4)  12:21+5:0712:22+5:111m321317.023164mNCRFirozabad, Uttar Pradesh
75/==/TDLTundla Junction (5)  13:05+5:0213:15+5:0010m221333.621167mNCRDistt.Firozabad, Uttar Pradesh
76/--/AFAgra Fort (3)  14:20+4:5814:25+5:125m221356.516170mNCRRakabganj, Uttar Pradesh
77/-=/IDHIdgah Agra Junction (3)  14:34 14:33+5:1514:35+5:401 2m--21358.65168mNCRAgra, Uttar Pradesh
78/==/AGCAgra Cantt. (6)XO15:00+5:3415:20+5:4520m321360.813174mNCRAgra, Uttar Pradesh
79/==/RKMRaja Ki Mandi (4)  15:38+5:4115:39+5:421m121364.865170mNCRAgra, Uttar Pradesh
80/==/MTJMathura Junction (10)X  16:25+5:4316:33+5:418m221414.575179mNCRMathura, Uttar Pradesh
81/==/CHJChata (4)X  16:59 16:58+5:4517:00+5:461 2m--21445.756 NCRChhata, Uttar Pradesh
82/==/KSVKosi Kalan (3)X  17:12 17:11+5:4717:13+5:481 2m121456.055189mNCRKosi Kalan, Uttar Pradesh
83/==/PWLPalwal (8)X  17:59+5:3718:00+5:401m--21498.456200mNRPalwal, Haryana
84/==/ASTAsaoti (5)  18:12+5:4118:13+5:421m321509.759203mNRAsaoti, Haryana
85/==/BVHBallabgarh (5)  18:23+5:4418:24+5:451m--21519.650203mNRFaridabad, Haryana
86/==/FDNFaridabad New Town (3)X  18:29+5:4918:30+5:491m--21523.747204mNRFaridabad, Haryana
87/==/FDBFaridabad (4)  18:35+5:5218:36+5:531m221527.748206mNRold Faridabad, Haryana
88/==/TKDTuglakabad (2)X  18:50+5:5418:51+5:551m--21538.833213mNRNear Tughlakabad Metro Station, Delhi NCT
89/==/OKAOkhla (4)  19:02+5:5519:03+5:511m--21544.822221mNRIshwar Nagar Mathura Road, Delhi NCT
90/==/NZMDelhi Hazrat Nizamuddin (7)XO  19:15 19:13+5:5019:17 19:15+5:502m321548.529209mNRNew Delhi 110013, Delhi NCT
91/==/TKJTilak Bridge (4)X  19:23 19:25+5:4519:24 19:26+5:441m--21553.210214mNRNew Delhi, Delhi NCT
92/==/NDLSNew Delhi (16)X  19:40+5:5120:10+5:5230m221555.714215mNRNew Delhi, Delhi NCT
93/==/DKZDelhi KishanGanj (2)  20:27+5:5720:28+5:581m--21559.632220mNRSarai Rohilla, Delhi NCT
94/==/SSBShakur BastiX  20:41+5:5820:42+5:591m--21566.550216mNRPitampura, Delhi NCT
95/==/NNONangloi  20:52 20:51+6:0220:53+6:021 2m--21574.058219mNRJJ Colony No 1, Delhi NCT
96/==/BGZBahadurgarh  21:06+6:0421:07+6:051m--21586.572220mNRBahadurgarh, Haryana
97/==/SPZSampla  21:22+6:0821:23+6:101m--21604.450222mNRSampla, Haryana
98/==/ROKRohtak Junction (3)  21:50+6:0621:55+6:035m--21626.872220mNRRohtak, Haryana
99|==|JNAJulana  22:23 22:21+6:0122:24 22:22+6:021m--21658.247226mNRJulana, Haryana
100|==|JINDJind Junction (3)  22:55+5:5723:00+5:565m--21683.870222mNRJind 126102, Haryana
101|==|UCAUchana  23:16+5:5923:17+6:001m--21702.565225mNRDistrict Jind, Haryana
102|==|NRWNarwana Junction (4)  23:31+5:5823:32+5:591m--21717.873235mNRWay to Narwana, Haryana
103|==|TUNTohana (2)  23:53+6:0523:54+6:061m--21743.235232mNRTohana, Haryana
104|-=|JHLJakhal Junction  00:15+6:0300:25+5:5710m--31755.443225mNRJakhal, Haryana
105!==!BLZBudhladaX  01:06+5:4501:07+5:471m--31785.048223mNRBudhlada, Punjab
106!==!MSZMansa  01:27+5:4501:28+5:481m--31801.149222mNRMansa, Punjab
107!==!MAURMaur  01:51+5:4601:52+5:471m--31819.847220mNRMaur Mandi, Punjab
108!==!KTFKot Fatteh new halt!!X  02:12+6:2102:13+6:191m--31835.419213mNRBathinda, Punjab
109!==!BTIBathinda Junction (6)X  03:15+5:1604:05+4:5350m231855.476208mNRBathinda, Punjab
110|--|GDBGiddarbaha  04:28 04:27+5:0304:29+5:081 2m--31883.261200mNRGiddarbaha, Punjab
111|--|MOTMalout (1)  04:46 04:45+5:0904:47+5:091 2m131899.445194mNRMalaut, Punjab
112|--|ABSAbohar  05:27 05:26+5:0005:28+5:041 2m--31928.935186mNRAbohar, Punjab
113|--|SGNRShri Ganganagar  07:00+4:51-331981.9-178mNWRSri Ganganagar, Rajasthan
Scroll to Top
Scroll to Bottom